Location: Le Petit-Vavre
(46.5081°N, 1.5239°E)
Time: 15:02:29
(UTC+00:00)

CZ-4B R/B - Pass Details

Date: 03 March 2021
Orbit: 388 x 454 km, 97.6° (Epoch: 20 April)

Event Time Altitude Azimuth Distance (km) Brightness Sun altitude
Rises 18:36:17 0° 5° (N) 2,294 5.0 -10.0°
Reaches altitude 10° 18:38:20 10° 357° (N) 1,435 4.0 -10.3°
Maximum altitude 18:41:11 37° 288° (WNW) 631 2.8 -10.8°
Drops below altitude 10° 18:44:03 10° 219° (SW) 1,440 4.5 -11.3°
Sets 18:46:06 0° 211° (SSW) 2,302 5.4 -11.7°
